Torna al catalogo

STARLINK-1456

AttivoComunicazioniVLEO
NORAD 45673·PAYLOAD·🇺🇸 United States

Lanciato Jun 4, 2020 da Cape Canaveral Space Force Station

Loading…

Prossimi Passaggi (prossime 24 ore)

TLE

AggiornatoSource: CelesTrak SupGP

Epoca: Sep 14, 2026, 20:32 UTC

1 45673C 20035S   26257.85604167  .00100460  00000+0  50420-3 0  2575
2 45673  53.0379 196.2282 0005869  70.2308  78.6885 15.80952424    15

Traccia STARLINK-1456 in tempo reale con AllMySat

Download on the App Store